RADUGA-1 4 [-]

Last updated on Jan. 23, 2021, 7:21 a.m. UTC

1 25642U 99010A   21022.91251944 -.00000351  00000-0  00000-0 0  9990
2 25642  14.9923  18.2220 0003931 303.6071 235.9786  1.00317113 80184
UTC
Height (km)
Latitude
Longitude
Inclination
Orbital Period
UTC large
Height (km)
Speed (km/s)
/
Latitude / Longitude
Inclination (degrees)
Orbital Period (minutes)
Azimuth
Elevation
Range (km)
Doppler Factor
iOS Compass Heading
iOS Angle

Next 30 passes for location: Hong Kong

Rise time Rise Azimuth (degrees) Set time Set Azimuth (degrees) Duration Max altitude (degrees)

No matching passes for this satellites